EW4944 Weather Reports


Display with metric or nautical units.
time (UTC)temp
F
wind
direction
speed
MPH
gust
MPH
rain 1hr
in
rain 24hr
in
rain mn
in
humidity
%
barometer
mb
20260502235557 52 0.0 0.0 0.00 0.00 0.00 75 1009.8
20260502235057 53 0.0 0.0 0.00 0.00 0.00 74 1009.9
20260502234557 53 0.0 0.0 0.00 0.00 0.00 73 1009.9
20260502234056 53 0.0 0.0 0.00 0.00 0.00 72 1009.8
20260502233557 53 1.0 3.0 0.00 0.00 0.00 72 1009.7
20260502233108 53 101 1.0 3.0 0.00 0.00 0.00 71 1009.7
20260502232556 54 101 0.0 6.0 0.00 0.00 0.00 70 1009.6
20260502232056 54 0 2.0 6.0 0.00 0.00 0.00 70 1009.6
20260502231605 54 180 1.0 5.0 0.00 0.00 0.00 69 1009.5
20260502231057 54 142 2.0 5.0 0.00 0.00 0.00 68 1009.5
20260502230557 54 206 2.0 5.0 0.00 0.00 0.00 68 1009.5
20260502230104 54 207 0.0 4.0 0.00 0.00 0.00 68 1009.4
20260502225556 55 207 0.0 6.0 0.00 0.00 0.00 68 1009.3
20260502225056 55 209 2.0 6.0 0.00 0.00 0.00 66 1009.3
20260502224601 57 184 2.0 6.0 0.00 0.00 0.00 64 1009.2
20260502224056 57 177 2.0 5.0 0.00 0.00 0.00 53 1009.3
20260502223557 57 229 1.0 4.0 0.00 0.00 0.00 55 1009.3
20260502223054 57 295 0.0 4.0 0.00 0.00 0.00 55 1009.2
20260502222557 57 297 2.0 6.0 0.00 0.00 0.00 56 1009.1
20260502222057 58 265 2.0 6.0 0.00 0.00 0.00 57 1009.2
20260502221601 58 288 2.0 5.0 0.00 0.00 0.00 55 1009.1
20260502221056 57 46 2.0 5.0 0.00 0.00 0.00 50 1009.3
20260502220557 58 297 2.0 6.0 0.00 0.00 0.00 55 1009.2
20260502220105 58 25 3.0 6.0 0.00 0.00 0.00 52 1009.2
20260502215556 58 271 1.0 5.0 0.00 0.00 0.00 55 1009.1
20260502215057 58 0 1.0 8.0 0.00 0.00 0.00 54 1009.1
20260502214558 58 226 1.0 8.0 0.00 0.00 0.00 53 1009.3
20260502214059 59 304 2.0 8.0 0.00 0.00 0.00 56 1009.1
20260502213554 59 5 2.0 8.0 0.00 0.00 0.00 57 1009.2
20260502213054 58 267 1.0 7.0 0.00 0.00 0.00 57 1009.2
20260502212556 58 271 2.0 7.0 0.00 0.00 0.00 58 1009.1
20260502212053 58 287 3.0 7.0 0.00 0.00 0.00 59 1009.3
20260502211557 57 277 2.0 7.0 0.00 0.00 0.00 59 1009.2
20260502211100 57 315 3.0 7.0 0.00 0.00 0.00 58 1009.2
20260502210553 58 20 1.0 8.0 0.00 0.00 0.00 57 1009.2
20260502210108 58 5 3.0 8.0 0.00 0.00 0.00 58 1009.1
20260502205553 59 19 2.0 8.0 0.00 0.00 0.00 57 1009.3
20260502205057 59 277 0.0 8.0 0.00 0.00 0.00 60 1009.2
20260502204556 59 0 4.0 8.0 0.00 0.00 0.00 59 1009.2
20260502204056 59 271 1.0 5.0 0.00 0.00 0.00 59 1009.3
20260502203556 59 9 2.0 5.0 0.00 0.00 0.00 58 1009.4
20260502203058 59 5 1.0 7.0 0.00 0.00 0.00 59 1009.4
20260502202553 60 219 1.0 11.0 0.00 0.00 0.00 59 1009.5
20260502202054 60 309 3.0 11.0 0.00 0.00 0.00 61 1009.6
20260502201603 59 340 3.0 11.0 0.00 0.00 0.00 62 1009.6
20260502201056 59 51 1.0 8.0 0.00 0.00 0.00 61 1009.7
20260502200555 58 24 2.0 8.0 0.00 0.00 0.00 62 1009.8
20260502200105 58 51 1.0 6.0 0.00 0.00 0.00 68 1009.8
20260502195554 57 305 3.0 6.0 0.00 0.00 0.00 62 1009.8
20260502195056 57 292 3.0 6.0 0.00 0.00 0.00 64 1009.9
20260502194618 57 30 2.0 6.0 0.00 0.00 0.00 66 1009.9
20260502194053 57 307 1.0 7.0 0.00 0.00 0.00 68 1010.0
20260502193556 56 251 4.0 8.0 0.00 0.00 0.00 65 1010.0
20260502193101 57 5 2.0 8.0 0.00 0.00 0.00 69 1010.1
20260502192557 57 31 2.0 8.0 0.00 0.00 0.00 69 1010.3
20260502192052 55 311 2.0 9.0 0.00 0.00 0.00 68 1010.2
20260502191558 55 360 4.0 9.0 0.00 0.00 0.00 68 1010.3
20260502191101 56 302 4.0 9.0 0.00 0.00 0.00 67 1010.4
20260502190600 56 315 4.0 12.0 0.00 0.00 0.00 69 1010.3
20260502190107 56 35 3.0 12.0 0.00 0.00 0.00 68 1010.6
20260502185558 56 360 4.0 11.0 0.00 0.00 0.00 68 1010.7
20260502185058 57 9 3.0 9.0 0.00 0.00 0.00 67 1010.7
20260502184600 58 282 4.0 12.0 0.00 0.00 0.00 66 1010.7
20260502184056 57 293 5.0 12.0 0.00 0.00 0.00 69 1010.8
20260502183556 57 5 3.0 11.0 0.00 0.00 0.00 66 1010.6
20260502183056 58 306 3.0 11.0 0.00 0.00 0.00 69 1010.6
20260502182557 58 335 5.0 11.0 0.00 0.00 0.00 70 1010.7
20260502182103 56 45 4.0 10.0 0.00 0.00 0.00 72 1010.7
20260502181558 55 272 4.0 10.0 0.00 0.00 0.00 71 1010.7
20260502181058 54 360 3.0 9.0 0.00 0.00 0.00 71 1010.6
20260502180600 55 38 1.0 8.0 0.00 0.00 0.00 74 1010.7
20260502180122 56 291 2.0 9.0 0.00 0.00 0.00 74 1010.7
20260502164102 56 190 3.0 8.0 0.00 0.00 0.00 75 1010.7
20260502163558 56 132 2.0 7.0 0.00 0.00 0.00 78 1010.8
20260502163056 55 159 2.0 10.0 0.00 0.00 0.00 75 1010.9
20260502162558 56 128 4.0 10.0 0.00 0.00 0.00 77 1010.8
20260502162056 55 225 4.0 9.0 0.00 0.00 0.00 75 1010.9
20260502161600 55 222 3.0 8.0 0.00 0.00 0.00 79 1011.0
20260502161057 54 144 3.0 9.0 0.00 0.00 0.00 77 1011.0
20260502160558 54 105 3.0 9.0 0.00 0.00 0.00 77 1011.0
20260502152101 53 169 4.0 9.0 0.00 0.00 0.00 79 1011.0
20260502151609 53 0 2.0 7.0 0.00 0.00 0.00 81 1011.2
20260502151102 52 181 2.0 8.0 0.00 0.00 0.00 80 1011.3
20260502150625 52 146 4.0 8.0 0.00 0.00 0.00 80 1011.3
20260502150103 52 192 3.0 10.0 0.00 0.00 0.00 80 1011.2
20260502130600 52 307 0.0 3.0 0.00 0.00 0.00 86 1011.4
20260502130104 51 0 0.0 2.0 0.00 0.00 0.00 88 1011.4
20260502123558 51 0 0.0 0.0 0.00 0.00 0.00 92 1011.3
20260502123102 50 0 0.0 1.0 0.00 0.00 0.00 91 1011.4
20260502122600 50 0 0.0 2.0 0.00 0.00 0.00 92 1011.4
20260502122058 50 0 0.0 3.0 0.00 0.00 0.00 92 1011.3
20260502121606 51 312 0.0 4.0 0.00 0.00 0.00 93 1011.4
20260502121101 50 315 1.0 4.0 0.00 0.00 0.00 93 1011.5
20260502120557 50 328 1.0 4.0 0.00 0.00 0.00 93 1011.6
20260502120104 50 0 2.0 4.0 0.00 0.00 0.00 93 1011.7
20260502115603 50 313 0.0 2.0 0.00 0.00 0.00 94 1011.5
20260502115058 49 0 0.0 3.0 0.00 0.00 0.00 93 1011.4
20260502114557 49 0 0.0 3.0 0.00 0.00 0.00 93 1011.0
20260502114058 49 84 1.0 3.0 0.00 0.00 0.00 93 1010.9
20260502113601 48 86 1.0 2.0 0.00 0.00 0.00 93 1010.8
20260502113057 48 0.0 0.0 0.00 0.00 0.00 93 1010.8
20260502112601 48 0.0 0.0 0.00 0.00 0.00 93 1011.0
20260502112057 48 0.0 0.0 0.00 0.00 0.00 93 1011.0
20260502111602 48 0.0 0.0 0.00 0.00 0.00 93 1011.5
20260502111055 48 0.0 0.0 0.00 0.00 0.00 93 1011.6
20260502110557 48 0.0 0.0 0.00 0.00 0.00 93 1011.4
20260502105558 48 0.0 0.0 0.00 0.00 0.00 93 1011.3
20260502105057 48 0.0 0.0 0.00 0.00 0.00 93 1011.2
20260502104556 48 0.0 0.0 0.00 0.00 0.00 93 1011.3
20260502104058 48 0.0 0.0 0.00 0.00 0.00 93 1011.4
20260502103558 48 0.0 0.0 0.00 0.00 0.00 93 1011.5
20260502103106 48 0.0 0.0 0.00 0.00 0.00 93 1011.5
20260502102554 48 0.0 0.0 0.00 0.00 0.00 92 1011.3
20260502102057 48 0.0 0.0 0.00 0.00 0.00 93 1011.1
20260502101620 48 0.0 0.0 0.00 0.00 0.00 92 1011.1
20260502101057 48 0.0 0.0 0.00 0.00 0.00 92 1011.1
20260502100559 48 0.0 0.0 0.00 0.00 0.00 92 1011.0
20260502100113 48 0.0 0.0 0.00 0.00 0.00 92 1011.0
20260502091058 48 0.0 0.0 0.00 0.00 0.00 90 1010.8
20260502090558 48 0.0 0.0 0.00 0.00 0.00 90 1010.9
20260502080106 50 0.0 0.0 0.00 0.00 0.00 88 1010.6
20260502071056 48 0.0 0.0 0.00 0.00 0.00 88 1010.7
20260502070557 48 0.0 0.0 0.00 0.00 0.00 87 1010.8
20260502070056 48 0.0 0.0 0.00 0.00 0.00 87 1010.9
20260502065557 48 0.0 0.0 0.00 0.00 0.00 87 1011.0
20260502065057 48 0.0 0.0 0.00 0.00 0.00 87 1010.9
20260502064602 48 0.0 0.0 0.00 0.00 0.00 87 1010.9
20260502064056 48 0.0 0.0 0.00 0.00 0.00 86 1010.9
20260502063556 48 0.0 0.0 0.00 0.00 0.00 86 1010.9
20260502063105 48 0.0 0.0 0.00 0.00 0.00 85 1011.0
20260502062557 49 0.0 0.0 0.00 0.00 0.00 86 1011.0
20260502062059 49 0.0 0.0 0.00 0.00 0.00 86 1011.1
20260502061558 49 0.0 0.0 0.00 0.00 0.00 85 1011.1
20260502061056 49 0.0 0.0 0.00 0.00 0.00 85 1011.0
20260502060558 49 0.0 0.0 0.00 0.00 0.00 84 1010.9
20260502060111 49 0.0 0.0 0.00 0.00 0.00 84 1011.0
20260502055557 49 0.0 0.0 0.00 0.01 0.00 84 1011.0
20260502055058 49 0.0 0.0 0.00 0.01 0.00 84 1011.1
20260502054555 49 0.0 0.0 0.00 0.01 0.00 84 1011.2
20260502054057 49 0.0 0.0 0.00 0.01 0.00 84 1011.2
20260502053556 49 0.0 0.0 0.00 0.01 0.00 84 1011.2
20260502053104 49 0.0 0.0 0.00 0.01 0.00 84 1011.4
20260502052558 49 0.0 0.0 0.00 0.01 0.00 84 1011.2
20260502052102 49 0.0 0.0 0.00 0.01 0.00 83 1011.4
20260502051601 50 0.0 0.0 0.00 0.01 0.00 83 1011.4
20260502051057 50 0.0 0.0 0.00 0.01 0.00 83 1011.4
20260502050556 50 0.0 0.0 0.00 0.01 0.00 83 1011.6
20260502050100 50 0.0 0.0 0.00 0.01 0.00 83 1011.6
20260502045558 50 0.0 0.0 0.00 0.01 0.00 83 1011.5
20260502045057 50 0.0 0.0 0.00 0.01 0.00 82 1011.6
20260502044557 50 0.0 0.0 0.00 0.01 0.00 82 1011.6
20260502044057 50 0.0 0.0 0.00 0.01 0.00 81 1011.5
20260502043555 50 0.0 0.0 0.00 0.01 0.00 81 1011.4
20260502043119 50 0.0 0.0 0.00 0.01 0.00 81 1011.6
20260502042558 50 0.0 0.0 0.00 0.01 0.00 81 1011.6
20260502042058 50 0.0 0.0 0.00 0.01 0.00 81 1011.5
20260502041556 50 0.0 0.0 0.00 0.01 0.00 80 1011.3
20260502041055 50 0.0 0.0 0.00 0.01 0.00 80 1011.5
20260502040557 50 0.0 0.0 0.00 0.01 0.00 80 1011.5
20260502040057 50 0.0 0.0 0.00 0.01 0.00 80 1011.4
20260502035557 50 0.0 0.0 0.00 0.01 0.01 79 1011.4
20260502035057 50 0.0 0.0 0.00 0.01 0.01 79 1011.5
20260502034558 50 0.0 0.0 0.00 0.01 0.01 79 1011.5
20260502034058 50 0.0 0.0 0.00 0.01 0.01 78 1011.7
20260502033557 50 0.0 0.0 0.00 0.01 0.01 78 1011.7
20260502033057 50 0.0 0.0 0.00 0.01 0.01 78 1011.7
20260502032554 51 0.0 0.0 0.00 0.01 0.01 78 1011.7
20260502032055 51 0.0 0.0 0.00 0.01 0.01 77 1011.6
20260502031557 51 0.0 0.0 0.00 0.01 0.01 77 1011.7
20260502031055 51 0.0 0.0 0.00 0.01 0.01 77 1011.7
20260502030555 51 0.0 0.0 0.00 0.01 0.01 77 1011.7
20260502030056 51 0.0 0.0 0.00 0.01 0.01 77 1011.7
20260502025557 51 0.0 0.0 0.00 0.01 0.01 77 1011.7
20260502025056 51 0.0 0.0 0.00 0.01 0.01 77 1011.7
20260502024556 51 0.0 0.0 0.00 0.01 0.01 77 1011.8
20260502024058 51 0.0 0.0 0.00 0.01 0.01 77 1011.7
20260502023555 51 0.0 0.0 0.00 0.01 0.01 77 1011.7
20260502023058 51 0.0 0.0 0.00 0.01 0.01 76 1011.8
20260502022555 51 0.0 0.0 0.00 0.01 0.01 76 1011.7
20260502022053 51 0.0 0.0 0.00 0.01 0.01 75 1011.8
20260502021556 51 0.0 0.0 0.00 0.01 0.01 76 1012.0
20260502021058 51 0.0 0.0 0.00 0.01 0.01 77 1011.9
20260502020557 51 0.0 0.0 0.00 0.01 0.01 78 1011.9
20260502020056 51 0.0 0.0 0.00 0.01 0.01 78 1012.0
20260502015558 51 0.0 0.0 0.00 0.01 0.01 78 1012.0
20260502015058 51 0.0 0.0 0.00 0.01 0.01 77 1011.9
20260502014558 51 0.0 0.0 0.00 0.01 0.01 76 1011.7
20260502014054 52 0.0 0.0 0.00 0.01 0.01 76 1011.6
20260502013559 52 0.0 0.0 0.00 0.01 0.01 76 1011.7
20260502013100 52 0.0 0.0 0.00 0.01 0.01 77 1011.8
20260502012557 52 0.0 0.0 0.00 0.01 0.01 76 1011.8
20260502012057 52 0.0 0.0 0.00 0.01 0.01 75 1011.8
20260502011609 53 0.0 0.0 0.00 0.01 0.01 73 1011.7
20260502011100 53 0.0 0.0 0.00 0.01 0.01 72 1011.7
20260502010559 53 0.0 0.0 0.00 0.01 0.01 72 1011.6
20260502010055 53 0.0 0.0 0.00 0.01 0.01 72 1011.6
20260502005554 53 0.0 0.0 0.00 0.01 0.01 72 1011.6
20260502005057 53 0.0 0.0 0.00 0.01 0.01 72 1011.6
20260502004606 53 0.0 0.0 0.00 0.01 0.01 72 1011.5
20260502004059 53 0.0 0.0 0.00 0.01 0.01 72 1011.5
20260502003556 53 0.0 0.0 0.00 0.01 0.01 72 1011.3
20260502003055 53 0.0 0.0 0.00 0.01 0.01 72 1011.3
20260502002554 53 0.0 0.0 0.00 0.01 0.01 72 1011.4
20260502002057 53 0.0 0.0 0.00 0.01 0.01 72 1011.2
20260502001556 53 0.0 0.0 0.00 0.01 0.01 72 1011.1
20260502001056 53 0.0 0.0 0.00 0.01 0.01 71 1011.1
20260502000557 53 0.0 0.0 0.00 0.01 0.01 71 1010.8
20260502000114 53 0.0 0.0 0.00 0.01 0.01 71 1010.8